Regional Weather Roundup
Issued by NWS Burlington, VT

Home | Current Version | Previous Version | Text Only | Print | Product List | Glossary On
Versions: 1 2 3 4 5 6 7 8 9 10 11 12 13 14 15 16 17 18 19 20 21 22 23 24 25 26 27 28 29 30 31 32 33 34 35 36 37 38 39 40 41 42 43 44 45 46 47 48 49 50
000
ASUS41 KBTV 030710
RWRBTV
VERMONT REGIONAL WEATHER ROUNDUP
NATIONAL WEATHER SERVICE BURLINGTON VT
200 AM EST TUE MAR 03 2015

NOTE: "FAIR" INDICATES FEW OR NO CLOUDS BELOW 12,000 FEET WITH NO
SIGNIFICANT WEATHER AND/OR OBSTRUCTIONS TO VISIBILITY.

* THESE REPORTS ARE NOT UNDER NWS QUALITY CONTROL AND/OR DO NOT
  REPORT WEATHER SUCH AS PRECIPITATION AND FOG.

VTZ001>019-030800-
_____VERMONT_____


CITY           SKY/WX    TMP DP  RH WIND       PRES   REMARKS
BURLINGTON     SUNNY      9   0  67 CALM      30.34R
MONTPELIER     SUNNY     12  -1  56 NW5       30.27R
MORRISVILLE    SUNNY     12  -2  53 CALM      30.30R
ST. JOHNSBURY*   N/A     14  -3  47 MISG      30.25R
LYNDONVILLE*   FAIR      10  -6  48 W8G20     30.23S
MIDDLEBURY*    FAIR      14   2  59 N7        30.31S
RUTLAND*       SUNNY     12   3  67 NW5       30.28R
SPRINGFIELD    SUNNY     13   1  59 S3        30.28R
HIGHGATE*      FAIR       5  -1  74 CALM      30.35R
NEWPORT*       FAIR       9  -4  54 NW8       30.26S
BENNINGTON     SUNNY     17   6  62 W10       30.29R WCI   5
SUTTON*          N/A      7 N/A N/A MISG        N/A

_____LAKE CHAMPLAIN_____


CITY           SKY/WX    TMP DP  RH WIND       PRES   REMARKS

$$

NYZ007-026>031-035-052-083-030800-
_____NORTHERN NEW YORK_____


CITY           SKY/WX    TMP DP  RH WIND       PRES   REMARKS
PLATTSBURGH    SUNNY      8   0  69 CALM      30.34S
SARANAC LAKE   SUNNY     -9 -13  83 CALM      30.22S
MASSENA        SUNNY     -3  -8  79 CALM      30.38R
OGDENSBURG*    SUNNY     -8 -11  84 CALM      30.36R
POTSDAM*       SUNNY      0  -2  92 SW3       30.36R
WATERTOWN      SUNNY      7   1  76 CALM      30.38S
FT DRUM        SUNNY      8   1  75 SW5       30.33F
ALBANY         SUNNY     17   5  59 W9        30.36S
GLENS FALLS    SUNNY     19   2  47 W5        30.34S

$$
NHZ002-005-011-030800-
_____NEW HAMPSHIRE_____


CITY           SKY/WX    TMP DP  RH WIND       PRES   REMARKS
LEBANON        SUNNY     17   0  47 N8        30.27R
KEENE          SUNNY     19   3  49 NW7       30.28R
MT WASHINGTON  ICE FOG  -13 -13 100 NW70G77     N/A  VSB 1/8 WCI -54
PLYMOUTH       FAIR      18   5  58 NW13      30.24R WCI   4
WHITEFIELD     SUNNY     11  -5  48 W9        30.23R

$$

_____REGIONAL QUEBEC LOCATIONS_____


CITY           SKY/WX    TMP DP  RH WIND       PRES   REMARKS
MONTREAL       SUNNY     12  -2  52 W6        30.36R
QUEBEC CITY    SUNNY      5  -9  51 W10       30.27R WCI -10
SHERBROOKE     SUNNY      5  -6  61 NW5       30.26R

_____REGIONAL ONTARIO LOCATIONS_____


CITY           SKY/WX    TMP DP  RH WIND       PRES   REMARKS
OTTAWA         SUNNY      7   1  78 SW6       30.35R

______KEY______
VSB  - VISIBILITY IN MILES
WCI  - WIND CHILL INDEX
HX   - HEAT INDEX
$$
NNNN


USA.gov is the U.S. government's official web portal to all federal, state and local government web resources and services.